Flag for Portugal Weather past 2 weeks in Ponta Delgada, Azores, Portugal

Now
59 °F

Partly sunny.


Feels Like: 58 °F
Forecast: 57 / 60 °F
Wind: 8 mph from Southwest

Location: Ponta Delgada / Nordela Acores

Current Time: Feb 27, 2015 at 12:21:59 PM

Latest Report: Feb 27, 2015 at 12:02 PM


Visibility: N/A

Pressure: 30.66 "Hg

Humidity: 63%

Dew point: 46 °F

Location of Ponta DelgadaLocation

Historic Weather in Ponta Delgada — Graph

°F

Ponta Delgada temperature yesterday

Maximum temperature yesterday: 61 °F (at 4:00 PM)
Minimum temperature yesterday: 57 °F (at 6:00 PM)
Average temperature yesterday: 59 °F

Past Weeks' High & Low Weather Summary

 TemperatureHumidityPressure
High63 °F (Feb 15, 4:30 PM)100% (Feb 14, 11:00 AM)30.69 "Hg (Feb 14, 11:00 AM)
Low48 °F (Feb 12, 11:30 PM)55% (Feb 24, 11:30 AM)30.24 "Hg (Feb 12, 11:00 AM)
Average58 °F82%30.50 "Hg
* Reported Feb 12 11:00 AM — Feb 27 11:00 AM, Ponta Delgada, Weather by CustomWeather, © 2015

Note: Actual official high and low records may vary slightly from our data, if they occured in-between our weather recording intervals... More about our weather records

Advertising

Ponta Delgada weather history for previous 24 hours

 ConditionsComfort  
Time TempWeatherWind HumidityBarometerVisibility
11:00 AM
Fri, Feb 27
57 °FPartly sunny.8 mph67%30.66 "HgN/A
10:30 AM57 °FPartly sunny.8 mph67%30.66 "HgN/A
10:00 AM57 °FPartly sunny.5 mph67%30.66 "HgN/A
9:30 AM57 °FPartly sunny.8 mph67%30.66 "HgN/A
9:00 AM57 °FPartly sunny.7 mph63%30.66 "HgN/A
8:30 AM57 °FPartly sunny.8 mph67%30.63 "HgN/A
8:00 AM57 °FPartly sunny.7 mph63%30.63 "HgN/A
7:30 AM57 °FPartly sunny.7 mph63%30.63 "HgN/A
7:00 AM57 °FPassing clouds.8 mph67%30.60 "HgN/A
6:30 AM57 °FPassing clouds.7 mph67%30.60 "HgN/A
6:00 AM57 °FPassing clouds.6 mph67%30.60 "HgN/A
5:30 AM57 °FPassing clouds.7 mph67%30.60 "HgN/A
5:00 AM57 °FPassing clouds.6 mph67%30.60 "HgN/A
4:30 AM57 °FPassing clouds.6 mph63%30.60 "HgN/A
4:00 AM57 °FPassing clouds.7 mph63%30.60 "HgN/A
3:30 AM57 °FPassing clouds.8 mph63%30.60 "HgN/A
3:00 AM57 °FPassing clouds.6 mph67%30.60 "HgN/A
2:30 AM57 °FPassing clouds.8 mph67%30.63 "HgN/A
2:00 AM57 °FPassing clouds.5 mph67%30.63 "HgN/A
1:30 AM57 °FPassing clouds.5 mph63%30.63 "HgN/A
1:00 AM57 °FPassing clouds.7 mph63%30.63 "HgN/A
12:30 AM57 °FPassing clouds.8 mph63%30.63 "HgN/A
12:00 AM57 °FPassing clouds.7 mph63%30.63 "HgN/A
11:30 PM
Thu, Feb 26
57 °FPassing clouds.3 mph67%30.63 "HgN/A
11:00 PM57 °FPassing clouds.3 mph63%30.63 "HgN/A
10:30 PM57 °FPassing clouds.5 mph63%30.66 "HgN/A
10:00 PM57 °FPassing clouds.3 mph67%30.63 "HgN/A
9:30 PM57 °FPassing clouds.5 mph67%30.63 "HgN/A
9:00 PM57 °FPassing clouds.5 mph67%30.63 "HgN/A
8:30 PM57 °FPassing clouds.5 mph63%30.63 "HgN/A
8:00 PM57 °FPassing clouds.2 mph63%30.63 "HgN/A
7:30 PM57 °FPassing clouds.5 mph67%30.63 "HgN/A
7:00 PM57 °FPassing clouds.7 mph63%30.63 "HgN/A
6:30 PM57 °FPartly sunny.3 mph67%30.63 "HgN/A
6:00 PM57 °FPartly sunny.6 mph67%30.60 "HgN/A
5:30 PM59 °FPartly sunny.6 mph63%30.60 "HgN/A
5:00 PM59 °FPartly sunny.8 mph63%30.60 "HgN/A
4:30 PM59 °FPartly sunny.6 mph59%30.60 "HgN/A
4:00 PM61 °FPartly sunny.8 mph55%30.60 "HgN/A
3:30 PM59 °FPartly sunny.7 mph63%30.60 "HgN/A
3:00 PM59 °FPartly sunny.8 mph63%30.60 "HgN/A
2:30 PM59 °FPartly sunny.9 mph63%30.60 "HgN/A
2:00 PM59 °FPartly sunny.8 mph68%30.63 "HgN/A
1:30 PM59 °FPartly sunny.8 mph68%30.63 "HgN/A
1:00 PM59 °FPartly sunny.7 mph63%30.63 "HgN/A
12:30 PM59 °FPartly sunny.7 mph63%30.66 "HgN/A
12:00 PM59 °FPartly sunny.6 mph63%30.66 "HgN/A
Weather by CustomWeather, © 2015

See weather overviewHow to use our weather pages